User: anonymous   Login
Location: Fremont
(37.5480°N, 121.9880°W)
Time: 23:33:41
(UTC-07:00)
Language:

Cosmos 1766 - Orbit

View from above orbital plane
View from above orbital plane
View from above satellite
View from above satellite

Ground track
Ground track

The orbit data is extracted from the following two-line orbital elements,

1 16881U 86055A   15110.09821264  .00005637  00000-0  36563-3 0  9995
2 16881 082.5067 074.5655 0008890 259.6350 100.3877 15.07882484562412
Epoch (UTC): 20 April 2015 02:21:25
Eccentricity: 0.0008890
inclination: 82.5067°
perigee height: 536 km
apogee height: 549 km
right ascension of ascending node: 74.5655°
argument of perigee: 259.6350°
revolutions per day: 15.07882484
mean anomaly at epoch: 100.3877°
orbit number at epoch: 56241

The dashed part of the orbit path shows where the satellite is in the earth's shadow,  

DLR